#timestamp,LO_Frequency,Hit 
1504450815.6,286046999.8,N
1504450835.4,286047002.4,N
1504450855.2,286046999.9,N
1504450875.1,286047000.6,N
1504450876.0,286047000.6,N
1504450895.8,286047000.9,N
1504450915.7,286046998.8,N
1504450935.5,286047000.7,N
1504450955.3,286047000.7,N
1504450975.2,286046998.4,N
1504450995.0,286046999.8,N
1504450995.9,286046999.8,N
1504451015.7,286047000.1,N
1504451035.6,286046998.1,N
1504451055.4,286046998.8,N
1504451075.3,286046999.4,N
1504451095.1,286046998.3,N
1504451096.0,286046998.3,N
1504451115.8,286046998.5,N
1504451135.7,286046998.8,N
1504451155.5,286046998.4,N
1504451175.4,286046999.7,N
1504451195.2,286046999.9,N
1504451215.0,286047000.9,N
1504451215.9,286047000.9,N
1504451235.8,286046999.3,N
1504451255.6,286047001.1,N
1504451275.4,286047000.1,N
1504451295.3,286047004.4,P
1504451315.1,286047001.9,N
1504451335.9,286047001.6,N
1504451355.7,286047002.0,N
1504451375.5,286047002.5,N
1504451395.4,286047002.8,N
1504451415.2,286047000.5,N
1504451435.0,286046998.1,N
1504451436.0,286046998.1,N
1504451455.8,286047000.1,N
1504451475.6,286047000.4,N
1504451495.5,286047002.4,N
1504451515.3,286047002.5,N
1504451535.1,286047004.4,N
1504451555.9,286047003.5,N
1504451575.7,286047003.5,N
1504451595.6,286047003.9,N
1504451615.4,286047005.5,N
1504451635.2,286047003.7,N
1504451655.1,286047005.3,N
1504451656.0,286047005.3,N
1504451675.8,286047004.9,N
1504451695.6,286047007.5,P
1504451715.5,286047003.6,N
1504451735.3,286047004.0,N
1504451755.2,286047006.9,P
1504451775.0,286046999.6,N
1504451775.9,286046999.6,N
1504451795.7,286046998.8,N
1504451815.6,286046998.9,N
1504451835.4,286047001.0,P
1504451855.3,286046996.6,P
1504451875.1,286046995.4,N
1504451895.8,286046997.9,N
1504451915.7,286046998.0,N
1504451935.5,286046995.7,N
1504451955.4,286046998.0,N
1504451975.2,286046999.4,N
1504451995.0,286046996.8,N
1504451995.9,286046996.8,N
1504452015.8,286046997.7,N
1504452035.6,286046999.4,N
1504452055.4,286046997.1,N
1504452075.3,286046998.5,N
1504452095.1,286047000.9,N
1504452115.9,286046998.6,N
1504452135.7,286046999.9,N
1504452155.5,286047000.8,N
1504452175.4,286047000.0,N
1504452195.2,286047001.2,N
1504452215.0,286047000.7,N
1504452216.0,286047000.7,N
1504452235.8,286046999.0,N
1504452255.6,286046998.4,N
1504452275.5,286047000.1,N
1504452295.3,286047000.6,N
1504452315.1,286047001.1,N
1504452335.9,286046997.5,N
1504452355.7,286046998.2,N
1504452375.6,286046996.6,N
1504452395.4,286046999.6,N
1504452415.2,286046995.0,P
1504452435.1,286046996.6,N
1504452436.0,286046996.6,N
1504452455.8,286046996.7,N
1504452475.6,286046998.6,N
1504452495.5,286046999.0,N
1504452515.3,286046998.1,N
1504452535.2,286046998.5,N
1504452555.9,286046998.8,N
1504452575.7,286047000.0,P
1504452595.6,286047005.8,P
1504452615.4,286047003.1,N
1504452635.2,286047005.3,N
1504452655.1,286047003.7,N
1504452656.0,286047003.7,N
1504452675.8,286047003.8,N
1504452695.7,286047004.0,N
1504452715.5,286047003.2,N
1504452735.3,286047002.9,N
1504452755.2,286047004.1,N
1504452775.0,286047006.0,N
1504452775.9,286047006.0,N
1504452795.8,286047001.4,N
1504452815.6,286047002.2,N
1504452835.4,286047003.6,N
1504452855.3,286047002.3,N
1504452875.1,286047003.3,N
1504452895.8,286047001.6,N
1504452915.7,286047002.1,N
1504452935.5,286047003.7,N
1504452955.4,286047004.0,N
1504452975.2,286047002.0,N
1504452995.0,286047003.8,N
1504452995.9,286047003.8,N
1504453015.8,286047003.7,N
1504453035.6,286047003.1,N
1504453055.4,286047001.4,N
1504453075.3,286047005.4,P
1504453095.1,286047000.5,N
1504453115.9,286046998.2,N
1504453135.7,286046999.2,P
1504453155.5,286046995.2,P
1504453175.4,286046995.7,N
1504453195.2,286046996.3,N
1504453215.1,286046996.3,N
1504453216.0,286046996.3,N
1504453235.8,286046994.6,N
1504453255.6,286046994.8,N
1504453275.5,286046992.1,P
1504453295.3,286046995.7,N
1504453315.1,286046997.3,N
1504453335.9,286046996.0,N
1504453355.7,286046996.4,N
1504453375.6,286046995.1,N
1504453395.4,286046993.7,P
1504453415.2,286046998.4,N
1504453435.1,286046998.3,N
1504453436.0,286046998.3,N
1504453455.8,286047001.1,N
1504453475.7,286046998.6,N
1504453495.5,286046999.4,N
1504453515.3,286046999.1,N
1504453535.2,286046998.2,N
1504453555.0,286047000.4,N
1504453555.9,286047000.4,N
1504453575.7,286047000.8,N
1504453595.6,286046998.1,N
1504453615.4,286046998.1,N
1504453635.3,286046999.7,N
1504453655.1,286047001.7,N
1504453656.0,286047001.7,N
1504453675.8,286047002.8,N
1504453695.7,286047000.1,N
1504453715.5,286047001.8,N
1504453735.3,286047002.5,N
1504453755.2,286047002.5,N
1504453775.0,286047002.7,N
1504453775.9,286047002.7,N
1504453795.8,286047000.5,N
1504453815.6,286047000.7,N
1504453835.4,286046998.1,N
1504453855.3,286047001.1,N
1504453875.1,286046999.5,N
1504453895.9,286046997.5,N
1504453915.7,286046995.9,N
1504453935.5,286046995.6,N
1504453955.4,286046996.0,N
1504453975.2,286046993.3,P
1504453995.0,286046994.1,N
1504453996.0,286046994.1,N
1504454015.8,286046996.4,N
1504454035.6,286046993.5,N
1504454055.5,286046995.9,N
1504454075.3,286046993.3,P
1504454095.1,286046998.9,N
1504454115.9,286046998.4,N
1504454135.7,286046998.9,N
1504454155.6,286046998.4,N
1504454175.4,286046996.6,N
1504454195.2,286046996.9,N
1504454215.1,286046996.8,N
1504454216.0,286046996.8,N
1504454235.8,286046996.5,N
1504454255.6,286046997.4,N
1504454275.5,286046997.3,N
1504454295.3,286046997.9,N
1504454315.2,286046995.0,P
1504454335.9,286046998.9,N
1504454355.7,286046999.4,N
1504454375.6,286046997.0,N
1504454395.4,286046999.5,N
